Theta_e
343 340 334 334 335 339 342 343 343 343 343 343 343 343 343 343 343 342 342 342 341 342 341 340 337 336 334 333 333 330 332 337 338 338 337 337 338 338 339 340 340 340 340 340 340 340 340 340 341 337 328 324 324 323 322 323 324 327 329 331 331 331 332 335 339 340 340 340 338 336 334 332 333 336 336 338 339 338 337 335 335 337 339 340 340
342 340 335 333 335 337 341 344 343 343 342 343 343 343 343 342 342 341 341 341 341 341 340 339 336 336 334 330 331 328 330 336 337 337 336 336 336 336 338 338 339 339 339 338 339 340 340 340 340 336 329 325 324 323 324 323 324 325 325 326 327 329 331 334 337 338 339 339 338 336 334 333 331 332 334 336 338 337 332 329 332 336 338 338 339
341 341 337 332 335 336 340 343 342 343 341 343 342 342 343 342 342 341 341 340 340 340 339 337 336 336 335 330 328 326 329 335 337 336 335 335 334 335 337 336 337 339 339 339 339 340 339 340 340 337 331 328 327 326 326 326 326 326 326 326 325 326 328 331 336 338 339 339 338 336 334 333 332 330 330 332 333 331 327 326 331 336 339 339 338
342 342 338 332 334 335 338 341 342 342 340 342 342 341 342 341 341 341 341 340 340 338 337 337 336 336 336 334 332 330 330 334 336 335 335 335 334 334 335 334 337 339 339 339 340 340 339 339 339 337 333 332 332 331 329 328 328 328 326 327 327 327 326 328 333 337 339 340 338 338 337 336 335 332 330 329 328 327 326 326 329 334 337 339 339
341 343 340 333 333 334 336 338 340 341 340 341 342 342 342 341 341 341 340 339 338 337 336 336 336 336 336 337 337 336 335 335 335 336 336 335 334 334 334 333 336 338 338 339 339 339 339 339 338 337 335 334 333 332 330 328 328 328 325 322 324 326 328 326 328 334 337 337 335 337 339 338 337 337 335 332 331 329 329 331 330 329 331 335 338
340 342 341 334 333 334 334 336 337 339 340 340 341 342 341 341 340 340 339 337 336 336 336 336 336 337 337 337 337 337 337 337 337 337 337 337 335 334 333 333 336 338 339 339 339 339 338 338 336 334 335 334 333 333 331 330 330 330 324 315 315 319 324 326 326 329 331 332 333 336 339 339 338 338 339 337 334 332 332 333 330 328 328 330 335
339 340 340 334 333 334 334 334 334 336 339 340 340 341 341 340 339 338 336 333 334 336 336 336 336 336 336 336 336 337 337 338 339 338 338 337 336 334 334 335 337 338 339 338 338 338 337 336 334 333 333 334 332 333 332 331 331 328 319 311 309 311 315 321 325 327 329 332 334 337 340 339 337 337 338 339 337 335 334 332 331 330 329 328 331
338 340 339 333 333 334 335 334 334 334 337 339 339 340 340 339 338 336 333 331 333 336 335 335 336 336 335 335 336 337 338 339 339 339 339 337 336 335 334 336 338 338 339 338 338 337 336 334 332 331 332 333 332 332 331 329 326 319 311 306 305 306 309 313 320 325 329 332 333 337 340 339 338 337 337 338 337 337 336 335 333 331 330 329 329
338 341 338 333 332 334 335 334 335 335 336 337 337 338 338 338 336 335 333 331 334 335 335 335 335 335 336 336 338 339 339 339 339 339 338 337 335 335 335 336 338 338 338 337 336 335 334 332 332 331 330 331 330 329 327 324 317 308 304 302 302 303 306 311 317 323 327 331 332 332 336 338 337 337 337 337 337 337 336 335 333 331 331 330 330
337 342 340 335 331 333 335 335 335 335 337 336 336 336 337 337 337 336 334 333 335 335 334 334 334 335 336 337 338 339 339 339 339 339 338 336 333 334 335 336 337 337 337 336 335 333 333 331 331 330 329 329 327 325 322 316 307 301 301 300 301 301 306 316 320 323 326 328 330 330 334 337 337 336 336 336 335 335 335 334 333 332 332 332 332
336 341 342 337 332 332 334 335 335 335 337 337 336 336 336 337 337 337 336 335 334 335 332 332 334 335 337 338 339 339 339 339 339 338 337 335 333 333 334 336 336 336 336 335 334 332 331 330 330 328 328 326 322 319 314 307 301 300 300 300 300 301 309 320 323 324 326 327 329 331 334 336 335 335 335 335 334 334 333 333 334 334 334 334 333
336 339 341 340 335 332 333 335 335 336 337 337 336 337 337 338 338 337 337 335 333 335 333 332 335 336 337 339 339 339 339 339 338 338 337 335 334 334 334 334 334 335 335 334 333 331 329 329 328 327 327 322 316 312 306 300 299 300 300 300 302 305 310 318 323 326 327 327 329 332 334 334 334 334 334 334 333 333 333 334 334 334 335 334 333
336 338 341 341 339 335 332 334 336 336 337 336 337 338 338 338 339 338 337 335 333 334 334 334 335 337 338 338 339 339 339 338 338 337 336 335 334 334 334 334 333 333 334 333 332 330 328 327 327 326 324 318 311 305 300 299 299 300 300 300 303 307 310 313 320 325 328 328 329 331 332 332 332 332 332 332 332 332 332 333 334 334 334 333 333
335 337 339 341 341 338 335 334 335 336 337 336 336 338 339 337 338 337 335 334 333 332 332 333 335 337 337 338 339 339 339 338 338 337 336 334 334 333 333 333 333 333 332 331 331 329 327 327 326 326 321 314 307 301 299 299 299 299 300 300 303 307 309 311 317 324 327 327 328 329 330 330 330 330 330 330 330 330 330 331 332 332 332 332 332
335 334 337 341 341 341 339 335 334 335 336 336 336 337 338 337 337 337 336 336 335 334 333 332 335 337 337 338 339 339 339 338 337 336 335 334 333 332 331 330 329 331 332 330 329 327 327 326 326 325 320 311 303 299 299 299 299 299 299 301 304 307 308 311 319 323 325 326 327 328 328 329 329 329 329 328 328 328 328 329 330 330 330 330 330
334 333 335 339 340 341 341 339 336 335 336 336 337 337 337 337 338 339 338 338 338 336 335 332 334 337 338 338 339 339 339 338 337 336 334 333 332 331 330 328 326 328 329 328 327 326 325 325 325 323 319 309 300 298 299 298 299 299 299 302 306 309 310 313 321 323 322 323 324 325 326 327 327 327 327 326 326 326 327 327 327 328 328 328 328
335 334 335 337 339 340 340 341 338 336 336 336 337 337 337 337 338 339 339 339 338 338 336 333 334 336 337 338 339 339 338 338 337 335 334 333 332 330 329 327 326 326 327 326 325 325 325 325 324 321 315 306 299 298 298 298 299 298 299 302 306 309 311 315 321 323 322 322 322 321 321 323 325 326 326 325 325 325 325 325 325 326 326 326 326
335 334 334 336 337 339 339 340 339 338 337 337 337 337 337 337 338 339 339 338 338 337 336 334 334 336 337 338 339 339 338 337 336 335 334 333 331 329 328 327 326 325 325 326 325 325 324 324 322 319 312 302 298 299 298 298 298 298 298 300 302 304 308 313 318 321 321 322 322 320 318 321 322 324 325 324 324 324 324 324 324 324 324 324 324
335 335 335 335 336 337 338 338 339 339 338 338 338 337 337 337 338 338 338 337 337 335 334 334 334 336 337 338 338 338 338 337 336 335 333 332 330 329 328 327 325 325 325 325 325 325 324 324 321 317 309 299 298 298 298 298 298 298 298 298 299 299 302 308 314 317 317 317 319 317 316 319 322 322 323 323 323 322 322 323 323 322 322 323 322
333 335 336 335 336 336 337 337 337 337 338 338 337 337 337 338 338 338 337 336 335 334 334 334 334 336 338 338 338 338 337 336 335 334 333 332 330 329 328 327 324 323 325 325 325 325 324 323 320 315 305 298 299 298 298 298 298 298 298 298 298 298 300 304 308 310 311 310 310 311 313 318 321 323 322 320 319 319 320 322 322 321 322 322 322
330 334 335 335 336 335 335 335 335 335 336 336 336 337 337 338 338 337 336 335 334 333 334 334 334 336 338 338 337 337 337 336 334 333 332 331 330 329 328 327 323 320 323 325 324 324 324 322 320 314 303 298 299 298 298 298 298 299 299 299 298 298 299 300 302 304 304 305 302 304 311 315 318 321 319 317 317 319 320 321 322 321 321 321 321
328 330 332 333 335 334 334 334 334 334 333 334 334 335 336 337 337 336 334 334 334 334 334 334 335 336 338 337 336 337 336 336 334 332 331 331 330 328 327 327 324 317 318 324 324 323 324 321 320 315 301 298 298 298 298 298 299 299 299 299 298 298 298 299 299 300 299 300 298 300 307 309 315 319 318 317 318 319 321 321 321 320 320 320 320
325 326 327 329 332 333 334 334 334 333 333 331 331 333 335 336 336 334 333 333 334 335 334 334 336 337 337 337 337 337 336 336 334 333 331 330 329 328 327 326 326 318 312 321 324 323 323 320 320 315 300 298 298 298 298 298 298 298 299 298 298 298 298 298 298 298 297 298 297 298 302 304 314 320 319 319 318 319 320 320 320 320 320 320 320
322 321 322 324 329 331 333 334 334 334 333 331 330 331 334 335 335 334 333 333 334 334 334 335 336 337 336 336 337 337 336 335 334 333 330 329 328 327 327 326 327 320 310 320 323 322 322 320 320 313 300 299 297 298 298 297 298 298 299 298 298 297 297 298 297 297 297 297 297 297 299 301 312 320 320 320 318 318 320 319 320 319 319 320 319
320 321 321 322 325 327 330 333 335 335 334 333 331 331 332 333 333 334 334 334 334 334 334 334 336 336 337 336 336 336 335 334 333 332 329 328 327 326 327 325 326 322 311 318 323 321 321 320 318 309 300 300 297 298 298 297 298 298 299 298 297 297 297 298 297 297 296 297 296 296 297 299 311 320 320 319 318 318 319 319 319 319 318 319 319
322 322 323 323 323 324 326 329 333 335 335 334 333 331 331 331 332 332 333 334 333 334 334 334 335 336 336 336 336 335 333 332 331 330 329 328 327 326 327 325 326 323 312 316 322 321 320 318 315 306 301 299 297 298 298 297 298 298 300 298 297 297 297 298 297 298 296 296 296 296 297 298 307 318 320 319 319 319 319 319 318 318 318 318 318
321 322 323 324 324 324 324 326 330 333 335 335 334 333 332 331 331 332 333 334 333 334 334 334 335 336 336 336 335 334 332 331 330 329 329 328 327 326 326 325 325 323 313 313 321 321 319 316 312 307 303 299 297 298 297 297 298 299 300 298 298 298 297 298 298 298 297 297 296 296 296 296 301 312 319 319 318 319 318 318 318 318 317 317 317
319 320 321 324 325 325 325 325 327 329 333 334 334 334 333 332 333 334 333 333 333 333 333 333 334 335 335 336 334 333 331 330 330 329 328 328 327 326 326 325 324 321 313 311 318 320 318 314 310 307 304 300 297 297 297 298 298 299 299 297 298 298 298 298 298 298 297 297 297 296 295 296 298 304 314 319 318 318 318 318 318 317 317 316 317
319 319 319 322 323 325 325 326 326 327 330 333 335 334 334 333 333 333 333 333 333 332 332 332 333 334 335 335 334 333 331 330 330 329 328 327 327 326 325 325 323 318 312 311 316 318 316 312 308 306 305 301 297 297 297 297 298 298 298 297 297 298 298 297 297 298 298 297 297 296 295 296 296 299 308 316 317 317 318 317 317 317 316 316 316
317 318 319 320 322 325 326 326 326 326 328 331 334 334 334 334 333 333 333 333 333 332 332 332 332 333 334 334 333 332 331 330 329 328 328 327 326 326 325 324 322 317 311 309 313 315 314 309 306 306 305 301 298 297 297 297 298 298 297 297 297 297 298 297 297 297 298 298 296 296 296 295 295 297 302 310 315 316 317 316 316 316 316 316 315
318 318 318 319 321 325 327 326 326 326 327 330 332 333 333 333 333 332 332 332 332 332 332 332 332 332 332 333 332 332 331 329 328 328 327 327 326 325 325 324 322 318 312 310 312 314 314 310 306 306 304 300 298 298 298 297 297 297 297 297 297 298 298 297 297 297 297 297 297 296 296 295 295 296 300 306 312 316 316 316 316 316 316 315 315
314 316 318 319 320 323 325 327 327 326 327 329 331 333 333 333 333 332 332 332 332 331 331 331 331 331 331 331 331 331 330 329 328 328 327 327 326 325 324 323 321 318 313 312 313 314 315 313 311 309 305 301 298 297 297 297 297 297 297 297 298 298 298 298 297 297 297 297 297 296 296 296 295 296 299 303 308 313 315 316 316 315 316 315 315
311 312 315 317 318 320 323 326 327 327 327 328 329 331 332 332 332 332 332 332 332 331 331 331 331 331 331 330 330 329 329 328 328 327 327 326 326 325 323 322 320 317 314 314 314 314 315 315 314 312 308 303 299 298 297 297 296 297 297 297 298 298 298 298 298 298 298 298 297 297 296 296 295 296 297 300 304 308 311 313 314 314 315 315 315
310 311 313 316 318 319 321 324 327 328 327 328 329 330 331 332 332 332 332 331 331 331 330 331 331 331 331 330 329 328 328 328 328 327 327 326 325 324 323 321 320 317 315 316 317 315 314 315 315 313 308 303 299 298 297 297 296 297 297 297 297 298 298 298 298 298 298 298 298 297 297 296 296 295 296 298 302 305 308 310 311 312 314 314 314
310 311 314 317 319 320 321 323 326 327 328 328 329 329 330 331 332 331 331 331 331 330 330 330 330 330 330 330 329 328 328 328 328 327 326 325 325 324 322 320 319 317 316 317 317 316 315 315 315 312 307 302 299 298 297 297 297 297 297 297 297 297 298 298 298 298 298 298 298 298 297 297 296 296 296 297 299 302 305 307 309 308 310 313 313
309 310 313 316 318 320 322 323 325 327 328 328 328 329 329 330 330 330 330 330 330 330 330 330 330 330 329 329 329 329 329 328 328 327 326 325 324 323 322 320 318 317 317 317 318 317 315 315 314 312 307 301 299 298 298 298 297 298 297 297 297 297 297 298 298 298 297 297 297 297 297 297 296 296 296 296 298 299 301 303 305 304 305 311 313
308 310 313 316 318 320 321 322 324 325 326 327 328 327 328 328 328 329 328 329 329 330 330 330 330 329 329 328 328 328 328 328 327 326 326 325 324 323 321 319 318 317 318 318 318 317 316 315 313 310 306 302 299 298 298 298 298 298 297 297 296 296 297 298 298 298 297 296 296 296 296 296 297 298 298 297 297 298 298 299 301 301 302 309 312
307 309 311 314 315 315 316 317 319 321 322 325 326 326 327 327 327 327 327 328 328 329 329 329 329 328 328 328 328 327 327 328 327 326 325 324 324 323 321 319 318 318 318 318 318 316 315 313 311 307 304 301 299 298 298 298 298 298 297 297 296 296 296 296 297 297 296 296 295 295 296 296 297 298 298 298 298 297 298 298 298 299 300 303 308
306 307 309 311 312 312 312 313 316 318 320 322 324 325 325 325 326 326 326 326 327 327 327 327 327 327 327 327 327 327 326 326 326 325 325 324 323 322 321 319 318 317 317 318 317 315 313 311 309 306 303 300 299 299 298 298 298 297 297 296 296 296 296 296 296 296 296 295 295 295 295 296 296 297 297 297 297 296 296 297 296 297 297 298 301
304 305 307 308 309 310 310 311 313 316 319 320 322 322 323 323 323 324 324 325 325 326 326 326 326 326 326 326 326 326 326 326 325 325 325 324 323 322 321 319 317 317 316 316 315 314 313 310 308 305 302 300 299 298 298 298 297 297 297 296 296 296 296 296 296 296 296 295 295 295 295 296 296 296 296 296 296 296 296 296 296 295 295 295 296
302 304 305 305 306 308 308 308 310 312 315 317 318 319 319 320 320 321 321 322 322 323 323 324 324 324 324 324 324 324 324 324 324 324 324 324 323 321 320 318 317 316 315 315 314 313 311 310 307 304 302 300 299 298 298 297 297 297 296 296 296 296 296 296 296 296 296 295 295 295 295 296 296 296 296 296 296 295 295 295 295 295 294 294 294
300 301 302 303 305 306 306 307 307 309 311 312 314 315 315 316 317 318 319 319 320 320 320 321 321 321 320 320 320 321 321 321 322 322 323 322 322 320 319 318 316 315 314 313 313 312 310 309 306 303 302 300 299 298 297 297 297 296 296 296 296 296 295 296 296 296 296 295 295 295 295 295 296 295 295 295 295 295 295 295 295 295 294 294 293
299 299 300 301 303 304 304 305 306 307 308 309 310 311 311 312 313 314 315 317 317 317 318 318 319 319 319 319 318 318 318 318 319 319 320 320 320 318 317 316 315 313 313 312 311 310 309 308 306 304 301 299 298 298 297 297 297 296 296 297 298 297 296 295 295 295 295 295 295 295 296 295 296 295 295 295 295 294 294 294 294 294 293 293 292
298 298 299 299 300 302 303 304 305 305 306 307 308 308 309 309 310 310 311 312 312 312 313 313 314 314 314 315 315 315 315 315 315 316 317 317 317 317 316 315 313 312 311 310 310 309 308 307 305 304 301 299 297 297 297 297 297 297 296 297 296 297 299 297 293 294 294 294 295 295 296 296 295 295 295 294 294 294 294 294 293 293 292 292 292
297 297 297 298 299 300 302 303 304 304 305 305 306 307 307 307 308 308 308 308 307 307 308 309 309 309 309 309 309 309 310 310 311 312 313 314 315 315 314 313 312 311 309 308 309 308 307 306 305 303 301 299 298 297 297 297 297 297 297 298 298 298 302 299 294 295 294 293 295 295 295 296 295 295 294 294 294 293 293 293 292 292 292 292 291
296 297 297 297 297 298 300 302 303 303 304 304 305 305 305 306 305 305 305 305 305 305 306 306 307 307 307 307 306 306 306 306 307 309 310 310 311 312 312 312 312 310 309 307 307 307 306 305 304 303 301 300 298 297 297 297 297 297 296 298 299 299 301 298 297 299 295 292 294 295 295 294 294 294 294 294 293 293 293 292 292 292 291 292 291
295 296 296 296 296 297 298 299 300 301 302 303 303 304 304 304 304 303 303 303 303 303 304 304 304 304 305 305 304 304 304 303 304 304 305 306 307 308 309 310 310 309 308 306 305 305 305 305 304 303 301 300 299 297 297 297 297 297 296 297 297 298 299 298 299 301 299 296 294 293 295 294 294 294 293 293 293 293 293 292 292 292 292 291 291
295 295 295 295 296 296 296 297 298 298 299 300 301 302 302 302 302 302 302 302 302 302 303 303 303 303 303 303 303 303 303 302 302 302 302 302 303 304 305 306 307 307 307 306 304 304 304 304 303 302 301 300 299 297 297 297 297 296 296 296 296 297 298 299 299 299 302 303 297 293 294 294 293 294 293 293 293 293 293 292 292 292 292 291 291
294 294 294 294 295 295 295 296 296 296 297 298 298 299 299 299 299 300 300 300 300 301 301 302 302 302 302 302 302 302 302 302 302 301 301 301 301 301 302 302 303 304 305 305 304 303 303 303 302 301 300 299 299 298 297 297 297 297 296 296 296 296 296 298 298 297 299 302 301 295 293 293 293 293 294 293 293 293 293 293 292 292 292 291 291
293 293 293 293 294 294 294 294 294 294 295 296 296 296 296 297 297 297 297 298 298 299 299 299 300 300 301 301 300 301 301 301 301 301 301 301 300 300 300 300 300 301 302 303 303 303 303 302 301 300 300 299 299 298 297 297 297 297 297 296 296 295 295 297 298 297 297 298 299 297 292 292 293 293 294 294 293 293 293 292 292 291 291 291 290
292 292 292 292 293 293 293 293 293 292 293 293 294 294 295 295 295 295 295 295 295 296 296 296 296 297 298 298 298 299 299 299 299 300 300 300 300 300 300 299 299 299 299 300 300 301 302 302 301 300 300 299 298 298 298 297 296 296 296 296 296 295 295 297 297 298 298 297 299 298 292 291 293 293 294 294 293 293 293 292 292 291 291 291 290
Wind_Speed
17 18 24 25 24 23 22 21 21 21 20 18 17 17 16 15 14 13 12 12 11 11 11 10 10 10 10 10 10 11 12 11 11 10 10 9 9 10 10 8 7 7 5 6 7 7 8 9 10 9 9 11 11 11 12 12 12 12 12 13 13 13 14 13 13 13 13 12 10 10 10 10 11 10 10 9 9 8 8 8 9 11 12 11 9
20 20 24 26 25 24 23 21 21 21 20 19 18 17 16 15 14 13 13 12 11 10 10 10 10 10 10 10 10 10 12 11 11 10 10 9 9 10 9 8 7 6 4 5 6 6 7 8 9 8 9 10 10 10 10 11 11 11 11 11 11 11 12 12 12 12 12 11 10 9 9 9 10 9 9 8 8 7 8 8 10 13 12 10 10
20 20 23 26 26 25 23 22 22 21 21 20 18 18 16 15 14 13 13 12 11 11 10 10 10 10 10 10 10 10 11 11 10 9 10 9 9 10 9 8 8 5 4 5 6 6 7 7 7 7 8 9 9 8 8 9 9 9 9 9 9 9 9 10 10 10 10 11 9 8 8 8 8 8 8 7 6 6 7 9 11 13 11 10 11
20 20 23 27 27 25 24 23 23 22 22 21 19 18 17 16 15 14 13 13 11 11 11 10 10 10 10 9 9 9 10 10 9 8 8 8 8 9 8 8 7 5 5 6 6 7 7 5 5 4 5 6 6 6 6 6 7 6 6 5 5 6 6 8 7 7 8 8 7 6 7 7 7 7 7 7 7 7 7 9 11 12 10 10 10
20 20 23 27 28 27 25 24 24 23 23 22 20 19 18 17 16 15 14 14 12 12 12 11 11 11 11 10 9 8 8 8 8 7 7 7 8 8 6 7 6 5 5 6 7 7 6 4 3 2 2 4 4 4 4 4 4 5 5 3 1 1 3 5 6 6 6 5 3 2 6 6 6 7 7 7 7 7 8 9 9 10 10 10 10
20 20 23 28 29 28 26 25 25 24 23 23 22 20 19 18 17 17 14 14 13 13 13 13 12 12 11 11 10 9 7 7 7 7 7 6 7 7 6 6 6 5 6 7 7 7 6 3 1 1 2 4 3 2 2 2 4 6 6 4 2 2 3 4 5 6 5 4 2 3 6 6 4 5 6 6 7 8 9 8 8 8 9 9 9
19 19 22 29 30 29 27 26 25 25 24 23 23 21 20 19 17 17 15 14 14 13 14 13 13 12 12 11 10 10 9 8 8 8 7 6 6 6 7 7 6 6 6 7 7 6 5 2 1 1 2 4 2 1 2 4 6 7 7 5 3 3 4 5 6 7 6 5 6 5 8 6 4 4 4 6 7 8 9 8 7 7 7 8 8
18 17 21 28 30 29 28 26 26 25 25 24 23 22 21 20 18 17 16 16 15 14 14 14 13 12 12 11 10 10 10 9 9 9 7 7 6 6 7 7 6 7 7 7 6 5 4 2 1 1 2 2 1 1 3 5 6 6 6 5 4 4 4 6 8 9 8 6 7 6 8 6 4 3 3 4 5 7 9 9 8 6 6 6 6
18 16 19 26 30 30 28 27 25 25 25 25 25 23 21 20 18 17 16 17 16 15 14 14 13 12 12 11 10 10 10 10 10 9 8 7 7 7 8 7 7 8 7 6 5 4 3 2 1 0 1 2 1 2 5 6 6 5 4 4 3 4 6 7 9 11 9 8 5 6 7 5 4 4 3 4 4 6 8 8 7 5 4 4 4
18 16 17 24 29 30 29 28 26 25 24 24 25 24 22 20 19 18 17 17 17 16 15 15 14 13 12 12 11 11 11 11 11 11 10 8 7 8 7 7 7 7 6 6 5 4 2 2 1 1 1 3 3 4 6 6 5 3 1 2 3 5 8 10 10 10 9 8 5 6 7 6 5 4 4 4 4 5 5 5 5 4 3 4 4
19 16 17 20 26 29 29 28 27 26 24 24 24 23 22 21 20 19 18 18 18 17 16 15 14 14 12 12 11 12 12 12 13 12 12 9 7 8 7 7 8 7 5 5 4 3 1 1 1 1 1 3 3 5 6 5 2 1 3 4 6 8 10 11 10 10 9 7 6 8 10 9 7 5 5 5 4 4 5 5 5 5 5 5 4
19 16 16 17 22 27 29 28 27 26 24 24 24 23 22 21 20 20 19 18 19 17 16 16 15 14 13 12 12 13 13 14 14 13 12 10 9 9 8 7 8 7 6 6 5 2 1 1 1 1 3 4 4 5 5 2 1 3 5 6 8 9 10 11 11 11 9 7 8 10 11 10 10 8 6 6 5 5 5 5 5 6 5 5 3
20 17 15 16 19 23 28 29 28 27 25 25 24 23 22 21 21 20 19 19 19 17 17 17 16 15 14 14 14 15 14 14 14 13 12 10 10 9 8 8 9 8 7 6 6 4 3 3 2 3 5 5 5 4 2 2 4 5 5 7 8 8 9 10 11 12 9 8 8 10 11 10 10 9 7 6 6 5 5 5 5 5 4 4 3
19 19 18 17 17 20 24 28 29 28 26 25 25 23 23 23 21 20 20 19 18 18 17 17 17 16 15 15 15 16 15 15 15 13 12 10 10 10 9 9 10 10 7 5 6 6 4 3 3 5 7 5 4 1 3 4 5 5 6 7 7 7 8 10 12 12 9 8 9 9 10 11 10 9 7 6 6 5 4 4 4 4 3 3 2
17 20 20 18 18 18 21 25 28 28 27 26 25 25 24 24 22 21 21 19 19 18 18 18 18 17 17 16 16 16 16 16 16 14 11 10 10 10 10 10 10 10 8 6 6 6 5 4 3 5 7 4 1 2 4 5 6 6 6 7 8 8 8 10 12 11 9 8 8 8 9 10 9 8 7 6 6 5 4 3 2 2 2 1 1
15 18 21 20 18 19 20 23 26 28 28 27 27 26 26 25 23 22 22 21 20 19 18 18 18 18 18 18 17 17 17 17 16 14 11 10 11 10 9 8 8 9 9 8 6 6 6 5 5 6 6 3 1 4 5 6 6 6 7 8 8 8 8 11 12 10 9 8 7 7 7 8 8 8 7 6 5 4 4 3 2 2 1 1 0
16 18 20 20 19 20 22 23 25 27 28 29 28 27 27 27 26 24 24 23 22 20 19 19 19 19 19 18 18 17 18 17 15 13 12 12 11 10 9 8 8 8 9 8 7 7 7 6 8 9 5 3 3 5 6 6 6 7 7 8 8 7 7 10 11 9 8 7 7 6 7 7 7 7 6 6 5 3 3 3 2 2 1 1 1
17 19 20 20 20 20 22 24 25 27 28 30 29 29 28 28 28 27 26 25 23 22 20 19 20 21 19 19 18 18 18 17 16 14 13 13 12 11 9 8 9 8 10 9 9 8 7 9 11 9 5 3 4 5 6 6 6 7 7 7 7 7 7 9 11 9 7 7 6 6 6 7 7 5 5 5 4 4 3 3 2 2 1 0 1
19 20 20 21 21 21 22 24 26 27 29 30 31 30 30 29 29 28 28 26 24 23 22 21 22 22 20 19 18 18 18 17 16 15 14 14 13 12 11 10 10 9 10 10 10 9 9 11 12 9 6 5 5 6 6 6 7 7 7 7 7 7 8 10 10 8 7 5 5 5 6 7 6 5 5 4 4 3 3 3 2 2 1 1 1
19 20 22 22 22 22 22 24 26 28 29 30 31 32 31 30 29 29 28 27 25 24 23 23 23 23 21 19 19 20 19 17 16 15 15 15 15 14 13 11 11 11 11 10 10 10 10 10 10 9 7 6 6 6 6 6 7 7 7 7 7 7 8 9 9 8 6 4 3 4 6 7 6 5 4 3 2 2 3 3 3 3 2 2 3
19 21 23 24 24 24 24 24 26 27 29 30 32 33 32 31 30 29 28 27 26 24 24 24 24 24 22 21 21 22 21 19 17 16 17 17 16 15 14 12 11 12 12 11 11 10 11 10 9 8 8 6 6 6 6 6 7 7 7 7 7 7 8 8 7 6 5 3 2 4 6 6 5 4 3 3 3 3 4 4 3 3 3 3 4
19 21 23 25 26 26 26 25 26 26 28 30 32 33 34 33 31 30 28 28 27 26 25 25 25 25 24 23 23 24 23 22 20 18 18 18 17 16 15 13 12 12 14 13 12 12 12 11 10 9 8 7 7 7 7 7 8 8 7 7 7 7 7 6 5 4 4 4 3 4 5 5 5 4 3 4 4 5 4 5 5 4 4 4 5
20 22 24 25 27 27 27 27 27 26 27 29 32 33 34 34 33 31 29 28 28 27 27 26 26 26 26 25 25 25 23 23 22 20 20 19 18 17 16 15 13 13 14 14 13 13 13 12 11 10 9 8 8 8 8 8 8 7 7 7 7 6 6 5 4 4 5 5 5 5 5 6 6 4 3 4 4 5 5 5 5 5 5 5 5
21 22 23 24 26 27 28 28 27 27 27 28 30 32 33 34 33 31 29 29 29 28 28 27 28 28 28 27 26 25 24 23 22 21 20 20 19 18 17 16 15 14 14 16 15 15 15 13 12 12 10 9 9 8 8 8 7 6 6 6 5 5 4 4 4 4 4 5 5 6 5 6 7 5 4 4 4 5 5 5 5 5 5 5 5
20 20 22 23 25 26 28 29 29 28 27 28 29 31 32 33 33 31 30 30 30 29 29 29 29 29 29 28 27 25 24 23 22 22 21 21 20 19 19 18 17 15 16 17 18 18 17 15 15 13 10 10 10 9 8 7 6 6 5 4 4 3 3 3 3 3 4 4 5 6 6 6 7 6 4 4 4 5 5 5 5 5 5 5 5
19 20 22 22 23 25 27 29 30 30 29 29 29 30 32 32 32 32 31 31 31 31 31 30 30 31 30 29 28 27 25 24 23 23 22 22 22 21 21 20 19 18 18 20 21 21 20 18 18 14 10 11 10 9 9 7 7 6 5 4 3 3 3 2 2 3 3 3 4 5 5 6 7 7 5 4 4 4 5 5 5 5 4 4 5
20 21 22 22 22 23 25 28 30 31 30 29 30 30 31 32 31 31 31 32 32 32 32 32 32 32 32 31 30 28 27 25 24 24 24 24 23 23 22 21 21 20 21 22 23 24 22 20 18 14 11 11 11 10 9 8 8 7 5 4 4 4 3 3 2 2 2 2 3 4 5 6 6 7 6 4 4 4 4 5 5 4 4 4 5
20 20 21 22 23 23 24 26 28 31 32 31 31 31 32 32 31 31 31 31 31 33 34 34 34 33 33 32 31 29 28 27 26 26 26 25 25 24 23 22 21 22 23 24 25 25 24 22 19 16 14 13 12 11 10 9 9 7 6 5 5 5 4 4 3 3 3 2 3 3 4 5 6 7 7 5 4 5 4 5 4 4 4 3 5
19 20 21 23 24 23 23 25 26 28 31 32 31 32 32 32 32 32 31 31 31 32 32 33 34 34 34 33 32 31 30 29 28 28 27 27 26 24 23 23 22 23 25 25 26 26 26 23 21 18 16 16 15 14 13 11 10 9 7 7 7 6 5 5 5 5 4 3 3 3 4 5 6 7 7 6 5 5 5 5 4 4 4 4 5
19 20 20 22 23 23 23 24 24 26 29 32 32 32 32 32 33 32 31 31 31 31 31 31 33 34 35 34 33 32 31 30 30 29 29 28 27 25 24 23 23 23 26 27 27 27 26 24 22 19 18 18 18 16 15 13 12 11 10 9 8 7 6 6 6 6 5 4 4 4 4 5 6 6 8 7 6 4 4 5 4 4 5 4 5
14 17 18 19 20 22 23 23 23 24 26 29 32 32 31 31 32 32 31 30 29 29 29 30 31 32 33 33 33 33 32 31 30 30 30 30 28 27 25 24 24 24 27 28 27 27 26 24 22 20 19 19 19 17 16 15 15 13 12 11 10 9 8 8 8 7 6 5 4 5 4 5 6 6 8 8 7 6 5 5 6 7 6 5 6
11 9 13 15 16 18 20 22 22 23 25 27 30 31 31 31 31 31 30 29 27 27 27 29 29 30 31 31 33 33 33 32 31 31 31 31 30 28 26 25 25 25 27 28 27 26 25 23 22 20 19 19 20 19 17 16 16 15 13 12 12 11 10 9 9 9 8 6 5 5 5 6 6 7 8 9 9 9 8 9 10 11 10 7 7
18 14 9 9 12 15 16 19 21 22 24 25 27 29 30 30 29 29 29 29 28 27 26 27 28 29 29 29 30 33 33 33 32 32 32 31 30 28 26 26 25 25 26 27 26 25 25 23 22 20 19 20 21 20 18 18 17 16 15 14 13 13 12 11 11 10 9 8 7 6 6 7 7 8 8 9 10 10 11 12 11 12 12 9 8
21 18 12 7 6 9 11 14 18 20 22 23 25 26 27 27 27 26 26 27 28 27 26 26 26 26 27 28 29 31 33 33 33 32 32 31 30 28 27 26 25 24 25 27 26 26 26 26 24 23 22 22 22 21 21 20 19 18 17 16 15 14 14 13 12 12 11 10 10 9 8 8 8 9 10 10 10 11 11 11 11 11 12 11 8
23 21 18 12 6 3 4 8 12 16 18 20 22 23 24 24 24 23 22 24 25 26 25 25 25 24 25 27 28 30 31 33 33 32 31 30 30 28 26 26 25 25 26 27 27 27 27 27 26 25 23 22 22 22 22 22 21 20 19 18 17 17 16 16 14 13 13 13 12 11 10 10 10 10 11 11 12 12 12 12 12 11 12 12 10
24 23 20 16 12 8 4 0 3 9 13 16 19 19 19 19 20 20 19 19 21 23 24 24 24 23 23 25 27 28 30 32 32 31 30 30 29 28 26 26 26 26 27 28 28 28 29 28 27 26 25 25 24 23 23 23 22 21 20 19 19 19 18 17 17 15 14 14 13 13 12 11 11 12 13 13 13 14 14 13 13 12 12 13 13
26 25 23 21 19 15 12 10 6 1 3 8 12 11 10 12 14 15 14 15 16 19 21 22 23 23 22 23 24 26 29 30 31 30 29 29 29 27 26 26 27 27 28 29 29 29 29 29 27 27 27 26 26 25 24 23 22 21 20 20 20 20 20 19 17 17 16 15 14 14 14 13 13 14 14 14 15 15 15 15 14 13 13 14 15
27 28 27 25 24 22 19 16 13 10 6 1 4 4 4 5 7 8 8 9 10 13 16 17 19 21 21 20 21 23 26 28 29 29 28 28 28 27 26 27 28 29 29 30 30 29 29 28 28 27 27 27 27 27 26 24 23 21 19 19 19 19 18 18 18 18 17 16 16 16 15 15 15 15 15 15 15 15 15 16 15 15 15 15 16
28 29 29 28 26 24 22 21 18 15 12 7 3 2 2 2 3 3 4 4 5 7 9 12 14 16 18 18 19 20 22 25 27 27 27 27 27 26 27 28 30 31 31 31 30 30 29 29 29 28 28 28 27 27 26 24 21 19 18 17 16 17 16 17 18 18 18 17 17 17 17 17 18 18 17 17 15 15 15 16 16 16 17 17 17
30 30 31 30 28 26 25 25 23 18 15 12 8 5 3 2 2 1 0 1 2 4 5 6 8 10 12 14 16 17 19 22 24 26 27 27 27 27 28 29 31 32 32 32 32 32 31 31 30 30 29 28 27 26 25 24 21 17 16 16 14 14 15 16 17 17 17 17 18 18 18 19 20 20 20 19 18 17 16 16 16 17 17 18 18
32 32 32 31 30 27 27 27 25 22 20 18 15 12 10 8 6 5 4 3 2 2 2 2 3 4 6 8 10 12 15 18 21 24 26 27 27 28 29 30 31 33 33 34 34 33 33 32 31 30 30 30 28 26 27 26 22 16 12 13 15 15 15 15 16 17 18 18 18 19 20 21 22 22 22 22 21 20 18 17 17 17 18 18 19
31 32 32 31 29 28 27 26 24 23 23 21 18 17 16 13 10 9 6 3 3 4 3 3 4 4 4 4 5 6 8 12 16 21 24 26 27 28 29 30 31 32 33 33 33 32 32 32 31 30 29 31 30 29 30 27 22 19 14 8 9 13 15 16 18 20 20 19 20 21 22 23 23 22 22 22 22 21 20 19 18 18 18 19 19
29 31 31 31 30 29 28 26 25 24 23 21 18 17 16 14 12 11 10 8 7 4 2 2 4 5 5 5 5 5 6 8 11 16 21 23 25 26 28 29 30 31 32 32 32 32 32 33 33 32 30 29 29 29 33 32 25 20 12 5 5 6 8 15 21 25 23 22 23 23 24 24 23 22 22 23 23 23 22 21 21 19 18 19 19
29 30 30 30 31 30 29 27 26 25 24 21 19 16 14 13 12 11 11 11 10 7 5 4 3 3 5 6 7 8 8 9 9 11 15 19 21 23 25 26 27 28 30 31 32 33 33 33 33 34 32 28 26 28 34 36 31 22 10 2 2 3 3 10 18 24 25 24 25 25 25 25 25 24 24 24 24 24 23 22 22 21 19 19 19
29 30 30 30 30 30 29 28 26 25 23 21 19 16 15 14 12 12 12 13 13 12 10 9 7 6 5 5 6 7 8 9 9 10 12 15 18 20 22 23 24 26 27 29 31 32 32 33 34 34 34 31 29 28 32 36 36 32 20 7 3 3 4 5 8 13 21 27 28 27 27 27 26 26 26 26 26 25 24 24 24 22 21 20 20
27 28 30 31 32 31 29 28 27 25 23 21 18 17 17 17 16 16 16 16 16 16 13 10 9 8 6 6 6 7 7 7 8 10 11 12 14 17 19 21 22 24 25 27 29 30 31 32 33 34 35 35 32 27 29 35 37 36 31 20 11 6 3 6 4 2 11 22 27 27 27 27 27 27 27 27 27 27 26 25 25 25 23 22 22
25 26 30 33 34 33 32 30 28 26 23 21 19 18 18 18 18 18 18 17 17 16 14 12 11 9 7 6 7 7 7 7 7 8 9 11 12 14 16 18 20 21 21 23 26 29 30 31 32 34 35 35 34 29 28 33 34 34 36 33 25 14 6 7 7 2 2 10 20 26 27 26 27 28 29 29 29 28 28 27 27 26 25 24 24
24 26 30 32 34 34 34 32 31 29 25 22 20 20 19 18 17 16 16 17 16 15 13 12 11 10 8 7 7 7 7 8 8 7 7 8 9 11 13 15 17 19 19 20 22 25 28 30 30 32 34 35 36 33 30 31 31 32 35 37 34 26 17 12 11 10 5 3 10 17 24 28 29 29 30 32 32 31 30 30 29 27 26 26 25
23 25 28 31 32 33 34 34 33 32 29 26 24 22 20 19 18 17 17 16 15 14 12 11 11 10 10 9 9 8 8 8 8 8 9 8 8 8 10 12 14 16 18 19 20 21 24 28 29 30 32 34 35 35 33 32 33 33 32 33 35 31 24 19 16 14 9 5 5 7 14 21 23 30 35 34 34 34 33 32 31 29 28 27 27
21 24 27 30 32 32 33 33 33 31 31 29 28 26 24 22 21 20 19 18 16 14 13 13 13 11 10 11 11 11 10 8 8 8 9 10 10 9 9 10 11 13 15 17 19 20 21 24 26 28 29 31 34 35 34 34 35 35 33 31 30 27 22 16 15 15 11 8 6 4 11 15 15 26 38 39 38 36 35 34 32 31 31 28 28
22 25 27 29 30 31 31 31 30 29 30 29 28 28 27 26 25 23 23 22 20 18 18 18 18 16 15 13 11 10 10 11 9 7 8 9 10 11 10 10 10 11 12 14 16 19 20 22 23 25 27 28 30 33 35 34 34 35 35 33 31 29 24 19 19 21 16 9 6 4 10 18 17 20 29 36 40 38 35 36 35 34 33 32 30
Wind_Direction
203 194 188 183 181 175 169 168 166 166 164 165 163 163 164 164 164 164 164 163 163 161 161 160 159 153 152 150 146 145 141 136 134 135 136 131 125 124 116 111 105 102 107 112 109 108 112 107 99 90 91 94 91 86 83 81 77 73 72 72 75 79 82 83 82 86 90 86 80 79 83 87 88 89 91 92 92 87 77 76 80 83 79 78 78
188 186 189 183 184 179 172 169 169 169 166 167 167 168 167 168 168 169 171 169 168 168 167 163 159 155 155 153 150 150 147 142 141 143 144 143 138 134 125 121 113 105 110 110 110 111 114 110 105 98 95 97 94 92 89 87 84 79 75 71 71 74 80 85 86 86 85 82 75 73 77 83 88 92 97 94 90 82 76 83 83 78 73 74 78
178 182 190 184 185 182 176 172 171 172 170 170 170 172 171 173 173 173 176 174 174 173 171 165 161 156 154 152 149 149 150 148 147 148 150 150 148 144 135 129 123 117 120 118 123 122 119 116 117 106 95 98 96 96 93 90 87 80 77 74 73 73 76 85 92 90 88 86 77 78 80 80 86 90 99 101 92 80 75 83 87 84 76 72 75
179 182 188 186 185 185 181 176 173 173 173 172 173 176 174 176 178 177 179 178 177 175 172 165 162 157 155 153 148 145 148 151 150 152 153 154 155 151 144 140 137 138 138 130 130 123 117 121 129 115 99 98 93 94 93 89 82 71 66 67 74 77 76 85 95 93 94 91 75 81 89 84 89 92 95 96 91 81 74 75 82 88 88 82 77
186 184 186 187 185 187 186 181 177 176 175 174 176 178 177 181 182 183 183 181 178 175 171 167 166 163 161 158 155 151 149 153 152 154 157 160 162 155 152 155 151 145 143 136 131 121 118 128 132 113 121 107 85 84 87 75 57 33 22 18 33 106 98 98 106 113 113 95 52 98 108 88 85 94 97 93 89 81 75 73 72 82 91 89 82
191 186 188 187 186 188 188 186 182 179 177 177 178 179 180 183 186 189 189 182 179 176 171 171 171 169 169 164 166 164 158 158 158 161 162 165 158 154 163 164 157 150 144 138 126 116 121 127 76 14 169 129 89 67 34 359 348 345 346 341 306 247 196 151 132 136 140 94 52 160 130 99 84 91 99 98 95 88 82 80 71 73 82 88 93
194 189 190 188 188 189 190 189 186 184 180 180 182 182 183 185 188 191 192 182 177 178 175 176 176 175 175 172 173 170 166 169 171 169 165 163 149 154 170 164 159 156 141 131 121 114 121 121 42 5 155 139 110 40 324 315 316 321 322 317 291 247 211 189 165 154 157 101 76 144 148 123 108 94 99 103 100 97 90 87 78 70 68 77 91
195 192 191 190 190 189 192 191 189 188 184 184 184 185 187 189 190 189 188 180 175 179 179 179 180 180 178 175 175 173 174 179 179 170 164 161 155 164 170 163 157 149 132 122 119 110 109 103 34 51 140 156 148 335 312 309 309 308 304 296 265 230 202 186 175 169 170 132 89 122 151 139 127 112 107 105 101 103 98 92 83 72 61 63 71
197 191 191 193 193 190 193 193 191 190 187 188 188 187 187 188 189 187 185 181 177 180 182 182 182 182 180 177 175 180 185 186 179 166 164 166 165 168 166 163 151 138 129 125 118 102 95 71 44 60 226 229 256 322 314 313 311 301 289 271 231 203 179 166 167 171 174 163 121 104 132 142 137 123 111 110 105 108 107 97 86 79 70 68 70
198 191 193 196 195 193 193 195 194 191 190 191 190 190 189 188 188 187 187 183 181 183 185 183 182 182 183 182 181 188 189 185 176 167 171 176 171 164 162 157 149 145 138 133 123 105 87 56 32 328 278 250 278 320 319 317 311 294 254 193 170 165 158 152 155 161 167 172 148 102 120 136 135 124 109 105 107 109 107 98 90 92 98 103 97
197 195 195 198 199 197 195 195 196 194 193 193 192 192 191 189 189 189 189 188 187 186 186 183 182 183 184 187 189 192 191 183 174 175 182 184 176 168 173 166 160 167 157 146 140 127 100 46 339 335 270 242 286 324 323 321 319 129 124 132 139 145 151 152 148 146 153 158 134 114 123 125 116 109 103 100 99 101 96 95 95 98 109 112 103
194 199 198 198 201 201 199 197 197 197 195 195 195 194 193 191 192 192 191 193 192 189 187 185 185 184 186 192 196 194 193 184 175 181 187 185 180 178 191 198 194 190 179 175 169 170 238 246 258 281 239 254 311 332 329 342 90 113 113 128 138 143 150 156 150 140 142 140 126 124 131 127 116 109 104 100 92 94 95 102 108 111 112 106 97
190 198 202 203 202 203 204 201 199 199 198 198 197 195 195 195 196 196 197 199 197 195 191 188 188 187 190 196 198 195 194 187 181 186 187 184 183 183 194 209 215 206 192 186 188 206 237 231 209 224 242 279 324 342 17 96 109 109 114 131 141 145 151 154 150 143 138 131 126 129 134 131 122 116 113 109 102 99 102 112 121 120 119 110 105
186 193 203 207 205 204 205 205 203 200 200 200 200 198 197 199 200 200 203 204 202 202 197 194 190 189 196 200 200 196 194 188 185 191 191 189 191 196 204 215 226 220 208 205 213 210 209 207 194 227 249 287 330 29 102 115 113 111 117 130 138 142 144 144 143 144 145 138 133 133 136 131 120 112 113 113 111 104 102 114 124 121 121 119 112
191 192 200 206 207 206 205 208 207 204 204 203 202 201 200 202 203 203 205 206 206 206 204 201 194 194 201 203 202 197 192 189 190 197 197 199 210 217 223 230 229 218 214 223 227 210 201 202 195 225 250 285 328 120 123 126 120 119 121 128 133 134 135 135 137 144 153 152 144 140 141 135 118 107 108 106 104 103 104 114 122 122 116 102 81
199 196 199 204 208 208 204 206 209 209 207 206 205 203 203 203 203 204 205 207 209 208 208 208 201 200 205 205 203 197 192 192 197 203 200 210 226 230 233 237 224 203 204 217 213 204 200 200 208 219 242 274 186 139 136 134 128 125 127 132 136 137 135 133 136 145 155 160 160 153 150 142 122 108 106 100 96 97 104 108 106 122 120 113 253
195 202 203 205 209 208 205 204 207 210 210 209 208 206 206 205 204 205 205 207 210 211 211 212 207 205 210 208 204 198 194 197 203 205 206 218 228 229 231 235 233 206 191 199 196 197 196 197 214 221 242 255 175 150 144 138 133 131 132 139 144 147 142 137 143 149 150 155 164 164 161 154 133 113 102 100 98 94 106 106 96 116 138 168 254
190 203 206 208 210 208 208 206 206 208 210 212 212 210 209 208 207 207 208 210 211 213 214 213 210 210 213 211 205 199 197 201 205 206 211 220 221 224 230 232 239 209 182 189 190 192 191 203 219 225 240 222 175 157 150 141 140 140 142 150 152 151 142 141 153 160 157 155 159 161 164 163 150 121 102 106 109 108 113 115 117 124 136 160 298
192 201 208 212 212 211 210 209 209 209 211 213 214 213 212 212 210 210 212 213 213 214 215 213 211 211 214 210 204 202 203 204 207 212 216 220 221 228 236 237 235 203 183 191 190 192 191 209 224 225 227 204 175 163 156 149 149 150 153 158 155 149 144 147 158 166 169 169 165 162 162 158 148 121 109 116 120 125 122 119 131 132 124 102 62
198 202 207 213 214 214 213 212 212 212 214 214 215 216 214 213 212 213 215 216 215 214 213 212 211 211 213 209 204 205 206 206 211 217 221 225 229 237 244 244 232 203 191 194 193 195 194 207 215 215 217 195 177 170 162 160 159 159 159 158 155 153 153 159 168 175 178 169 155 162 160 147 126 109 113 121 122 123 122 119 124 121 119 114 103
205 207 210 213 215 217 218 216 216 216 216 216 216 217 216 215 214 215 217 218 216 215 212 210 211 211 211 208 206 208 207 208 213 218 223 230 236 241 245 247 238 215 200 196 197 197 194 198 193 200 211 189 177 173 170 173 169 167 163 157 156 160 163 171 180 183 184 167 148 157 161 152 124 103 104 103 103 103 105 112 118 117 113 114 111
213 214 216 215 215 218 220 220 219 218 218 218 218 217 217 215 214 215 216 218 216 215 212 210 211 211 211 209 209 209 207 210 215 220 226 232 237 240 243 245 244 229 209 195 196 195 194 198 187 193 202 185 182 182 182 182 177 172 162 157 159 163 166 177 182 167 161 161 163 165 165 159 128 103 107 105 106 108 108 111 112 112 110 111 112
221 221 224 222 218 218 219 222 223 221 218 218 219 218 217 215 214 215 215 216 215 214 213 212 211 211 212 210 210 210 209 213 218 224 229 232 236 238 242 244 245 239 216 196 195 195 196 199 189 192 195 187 190 189 187 185 180 172 157 156 159 160 162 170 168 148 149 153 159 164 169 162 132 110 118 116 114 118 118 117 114 113 113 113 114
233 234 234 229 223 219 219 221 225 224 220 218 219 218 217 216 215 215 215 214 214 214 214 214 212 212 213 212 211 212 214 217 222 227 229 230 232 233 238 240 241 239 218 198 195 198 199 197 193 195 193 192 195 194 193 186 180 173 160 157 152 153 161 163 154 145 148 148 153 158 164 165 139 123 134 132 128 128 126 124 121 119 118 117 119
247 244 239 233 229 225 222 221 223 224 222 219 218 218 218 217 216 217 217 215 214 213 214 215 214 213 213 213 213 216 218 221 224 225 227 228 229 230 234 236 236 233 216 200 195 201 201 195 198 198 191 199 201 197 198 191 187 182 169 159 154 163 172 170 150 143 148 142 151 158 163 167 143 129 142 145 135 134 133 133 129 124 120 118 121
248 242 240 239 234 231 228 223 222 222 223 222 219 219 218 217 217 217 217 217 216 214 215 216 215 214 214 215 216 218 221 222 224 224 226 228 229 230 232 233 232 228 216 203 199 205 205 200 203 198 189 204 207 202 199 191 198 199 183 174 182 186 193 216 171 143 155 148 155 161 162 170 154 137 139 148 142 139 139 140 139 131 124 120 121
245 246 246 243 236 233 231 227 223 221 222 223 222 219 218 218 218 217 217 217 217 216 217 217 216 217 217 217 218 219 221 221 223 225 227 229 230 231 231 231 229 225 216 207 203 208 210 208 208 201 196 206 210 211 206 197 201 204 194 192 206 207 208 233 231 177 179 167 167 171 169 177 172 152 139 144 148 146 150 150 147 141 133 130 132
244 248 250 245 239 236 232 228 225 223 222 222 222 220 218 218 218 217 218 218 218 218 218 219 219 219 220 221 221 221 221 221 223 226 228 229 229 229 227 227 228 223 214 209 207 209 213 214 213 207 204 207 211 215 215 209 205 204 203 207 217 224 223 233 242 220 206 201 192 188 182 182 186 173 150 145 155 156 161 160 156 156 151 144 146
244 249 249 245 243 239 233 230 228 226 224 221 221 221 219 218 218 219 220 220 220 221 221 221 222 222 223 224 224 224 222 221 222 225 227 228 228 227 224 226 228 220 212 211 210 211 214 216 217 212 209 210 211 215 217 215 210 206 207 215 223 227 228 234 244 237 217 210 207 203 200 191 192 191 173 157 157 165 168 172 174 175 173 165 162
249 251 247 247 247 240 233 231 232 231 227 222 221 221 220 219 219 220 220 220 221 223 223 224 225 225 225 226 227 226 224 223 222 224 225 226 225 224 225 226 227 221 213 213 213 214 216 217 217 212 210 212 214 217 217 216 215 211 210 215 222 226 228 229 241 247 234 217 216 213 210 204 197 198 193 174 158 168 180 183 183 180 183 185 177
269 258 251 252 248 240 235 234 233 233 229 225 223 222 221 220 220 220 220 220 221 222 223 225 227 227 227 226 226 226 226 226 224 224 223 223 223 224 226 226 226 222 217 215 215 217 219 220 219 214 212 213 216 219 218 217 216 215 213 215 220 224 227 228 234 244 245 236 229 225 216 214 208 202 199 185 166 158 163 178 188 194 195 201 198
353 315 282 269 255 246 241 237 233 232 230 227 226 224 223 222 221 221 221 222 222 223 224 225 227 228 228 227 226 226 226 226 225 224 222 222 223 224 226 225 225 223 218 216 216 218 221 222 222 220 218 216 216 219 219 218 217 216 215 215 219 223 226 228 233 240 246 245 237 234 227 221 217 209 204 198 186 171 168 179 189 197 193 186 198
28 18 343 299 278 261 247 242 235 231 230 230 229 227 226 224 224 224 224 225 225 226 227 227 228 228 229 228 227 226 225 225 224 223 222 222 223 224 226 226 225 222 218 216 215 218 219 219 220 220 219 216 214 216 216 215 217 218 216 215 218 223 227 227 231 237 244 246 243 240 235 230 224 219 214 209 206 198 194 195 195 196 191 182 196
31 33 30 14 311 276 256 246 235 231 232 232 232 230 229 227 226 227 226 227 226 227 228 228 229 229 230 229 228 226 225 225 224 223 221 222 223 223 226 227 225 222 219 216 215 217 217 215 215 216 216 215 214 213 214 213 214 217 215 216 218 221 227 228 229 233 238 243 244 240 234 232 229 225 221 216 215 215 214 212 207 200 195 190 186
36 38 40 46 36 340 279 250 238 234 233 231 232 232 231 229 228 229 229 229 228 228 229 229 229 229 229 227 226 226 225 225 225 223 222 222 223 224 226 226 224 221 219 218 217 216 216 215 214 214 213 214 214 213 215 215 214 215 214 214 216 220 225 228 228 229 233 237 240 240 234 230 229 228 225 222 219 219 221 221 218 211 206 200 179
42 43 47 57 64 58 47 355 232 232 232 231 231 231 233 232 231 233 233 232 231 230 230 229 229 229 228 227 225 225 224 224 224 224 223 222 224 225 226 225 223 221 219 219 218 217 216 215 216 217 214 211 210 211 214 216 215 215 213 213 215 219 223 226 228 228 228 231 234 237 236 232 228 226 225 224 222 222 223 223 223 221 218 209 191
48 50 54 62 68 67 65 64 66 84 230 227 224 225 230 231 231 234 236 235 233 231 230 230 230 230 229 228 226 224 223 224 223 224 225 224 226 227 226 223 222 221 220 219 219 219 218 216 216 218 218 214 209 208 210 213 215 214 212 213 215 218 222 224 227 228 227 227 227 230 233 234 232 229 226 226 225 225 225 224 224 222 220 216 207
52 55 60 65 68 65 62 61 58 51 46 84 202 199 189 203 214 221 227 228 227 228 228 229 230 230 231 230 229 226 224 224 224 224 225 226 228 228 227 223 222 221 220 219 220 220 221 220 217 216 218 218 213 209 209 211 212 211 211 214 216 217 221 224 225 228 229 228 226 225 227 229 233 235 233 230 228 228 228 228 226 224 221 221 219
49 54 60 65 67 65 63 61 57 54 53 58 87 136 127 147 168 183 202 208 213 218 220 223 226 229 232 233 233 230 227 225 225 226 226 227 227 228 228 225 224 223 221 220 220 220 220 222 221 217 216 218 220 217 212 209 206 207 208 209 213 217 221 225 227 229 229 228 227 224 222 224 230 234 237 236 233 230 230 229 228 227 226 224 225
47 51 57 61 62 63 64 61 59 61 64 62 59 50 33 27 29 26 196 165 197 206 209 216 221 228 232 233 234 232 231 230 230 229 229 229 229 229 229 227 226 224 222 221 221 222 222 222 222 219 215 214 218 219 214 208 199 196 201 203 206 213 221 226 227 229 230 228 225 224 224 224 227 231 236 239 237 234 232 231 228 227 228 228 228
45 49 53 55 57 60 61 59 59 62 64 61 58 53 45 36 26 15 2 352 333 286 255 247 242 241 240 238 238 235 233 233 233 234 233 233 233 232 230 228 227 225 226 226 226 226 226 225 223 220 218 214 213 213 211 205 191 181 189 202 208 211 216 221 226 229 231 228 225 226 228 227 227 230 235 239 240 239 236 233 230 227 228 230 231
41 45 49 52 55 58 58 57 59 61 61 61 61 57 53 52 51 45 42 39 19 350 330 317 307 307 301 286 270 256 244 237 237 238 238 237 236 233 231 230 228 227 228 229 230 229 226 226 223 219 219 218 217 213 205 198 190 187 185 187 209 219 221 221 225 229 229 228 226 227 231 231 230 231 233 237 239 240 240 237 233 229 228 230 233
44 47 50 52 54 55 56 57 58 59 59 60 60 56 55 59 59 56 63 76 70 49 22 340 307 310 315 314 309 296 278 257 247 245 245 243 240 236 234 233 232 231 229 228 228 228 227 226 224 221 218 217 219 215 207 203 196 186 177 178 206 216 232 230 228 228 224 223 225 226 229 232 233 234 234 236 238 239 240 241 239 235 231 232 234
44 48 50 52 54 55 57 58 58 58 57 57 57 57 59 65 66 64 67 71 68 65 67 58 28 347 332 324 317 309 301 290 275 262 256 254 250 246 241 238 236 235 233 231 229 229 228 227 226 225 219 213 214 215 212 209 204 191 175 148 158 160 244 232 226 228 222 220 224 225 227 231 233 233 234 236 237 238 239 240 242 241 237 235 235
40 45 49 52 55 58 60 62 62 61 58 57 57 57 59 63 69 72 72 69 62 59 63 62 57 46 27 7 349 332 320 308 295 283 272 266 263 258 253 249 245 242 239 235 234 235 233 230 229 227 222 217 215 216 213 211 211 210 202 175 130 194 237 206 209 228 219 216 222 225 227 231 232 231 232 234 236 237 237 237 239 241 240 239 238
38 44 50 54 56 58 61 64 64 63 61 59 59 61 61 58 59 60 57 55 51 47 51 57 58 53 45 31 16 360 346 334 316 301 289 281 276 272 268 264 258 253 248 243 240 239 238 236 233 230 227 225 221 219 216 213 215 217 215 213 217 222 200 161 159 235 219 217 221 224 227 230 231 231 231 234 235 234 234 235 236 238 239 240 240
38 46 53 56 57 57 59 61 62 62 60 59 60 62 63 60 58 56 51 47 43 41 45 53 54 47 38 27 17 9 1 357 345 326 311 299 291 285 280 276 271 266 260 253 247 244 244 243 240 236 233 231 226 222 221 218 217 221 222 225 232 241 228 187 182 171 206 225 222 222 225 227 228 231 233 235 235 234 234 234 234 234 235 238 240
39 47 54 57 59 58 59 60 61 61 59 59 60 60 60 59 57 57 53 47 42 39 41 47 53 52 46 30 14 5 359 359 0 356 344 325 310 300 293 287 282 278 274 266 257 252 251 250 247 242 238 235 230 227 226 223 221 224 225 227 234 242 243 231 220 205 173 194 222 221 224 225 226 229 234 236 236 236 236 235 234 233 232 234 237
43 48 56 60 62 62 61 61 59 59 59 60 61 60 60 59 57 55 51 47 43 39 36 36 43 52 55 45 29 15 359 345 344 351 354 350 338 320 308 299 292 287 283 279 272 263 257 254 252 248 243 239 236 234 232 229 227 228 228 229 234 240 243 245 239 223 203 203 215 214 216 219 226 231 232 235 236 237 238 238 236 234 234 234 234
48 51 57 61 63 63 63 62 58 57 59 61 62 60 59 58 55 52 49 45 41 37 33 29 27 32 43 44 37 31 24 8 348 336 337 339 334 329 325 314 305 298 290 285 281 275 268 262 258 255 251 247 242 239 237 236 235 235 233 231 232 234 238 242 238 228 225 230 226 210 201 200 214 229 229 231 233 234 235 236 237 236 235 235 233
53 53 55 59 62 63 63 63 59 58 59 60 61 61 60 59 56 54 51 47 44 41 37 30 24 22 24 27 26 25 25 24 17 0 343 333 320 313 314 315 314 308 300 294 288 283 278 273 269 264 260 255 251 246 242 240 239 239 239 236 234 231 230 230 228 223 222 227 224 214 206 205 212 228 230 230 230 230 232 233 234 235 235 234 233